Location: Unspecified
(44.4377°N, 88.0525°W)
Time: 20:24:11
(UTC-05:00)

CZ-3 Stage 3 - Visible Passes

Search period start: 01 May 2016 00:00
Search period end: 11 May 2016 00:00
Orbit: 403 x 34801 km, 30.3° (Epoch: 01 May)

Date Brightness Start Highest point End Pass type
(mag) Time Alt. Az. Time Alt. Az. Time Alt. Az.
03 May 4.9 03:37:59 23° SSW 03:40:40 25° S 03:45:13 10° SE visible
03 May 6.5 20:13:57 10° S 00:09:53 - ESE 23:40:19 23° S visible
06 May 4.8 03:29:46 24° SSW 03:32:20 26° S 03:36:55 10° SE visible
06 May 6.5 19:47:47 10° S 00:01:39 - ESE 23:36:25 25° S visible
09 May 4.8 03:21:29 24° SSW 03:23:59 26° S 03:28:37 10° SE visible
09 May 6.4 19:23:31 10° S 23:53:22 - ESE 23:32:34 27° S visible
